Total_Precipitation_Accumulation
0.24 0.23 0.31 0.50 0.61 0.55 0.58 0.68 0.92 0.79 0.64 0.58 0.55 0.58 0.60 0.65 0.68 0.65 0.68 0.68 0.65 0.61 0.62 0.68 0.69 0.66 0.71 0.79 0.89 1.03 1.10 0.99 0.84 0.71 0.60 0.56 0.58 0.55 0.59 0.65 0.67 0.72 0.77 0.88
0.10 0.11 0.20 0.42 0.52 0.55 0.54 0.53 0.53 0.45 0.42 0.32 0.31 0.37 0.39 0.42 0.42 0.40 0.42 0.43 0.41 0.37 0.35 0.39 0.38 0.41 0.45 0.54 0.69 0.90 0.98 0.85 0.68 0.60 0.57 0.52 0.51 0.48 0.47 0.50 0.56 0.60 0.65 0.81
0.14 0.12 0.19 0.42 0.43 0.49 0.38 0.24 0.21 0.25 0.26 0.18 0.20 0.29 0.31 0.36 0.36 0.31 0.31 0.33 0.32 0.31 0.27 0.27 0.28 0.31 0.39 0.45 0.58 0.68 0.71 0.66 0.53 0.47 0.44 0.42 0.41 0.41 0.42 0.44 0.48 0.54 0.57 0.73
0.24 0.23 0.42 0.62 0.48 0.40 0.34 0.20 0.13 0.13 0.12 0.13 0.17 0.23 0.23 0.28 0.34 0.30 0.26 0.28 0.27 0.28 0.28 0.30 0.34 0.37 0.47 0.51 0.51 0.54 0.61 0.62 0.52 0.45 0.41 0.39 0.37 0.37 0.45 0.46 0.45 0.50 0.55 0.59
0.32 0.34 0.44 0.49 0.33 0.29 0.37 0.36 0.15 0.11 0.11 0.11 0.13 0.17 0.16 0.18 0.23 0.23 0.19 0.17 0.17 0.18 0.17 0.19 0.22 0.25 0.29 0.30 0.32 0.34 0.39 0.45 0.41 0.34 0.35 0.38 0.36 0.41 0.44 0.45 0.49 0.51 0.55 0.58
0.37 0.38 0.48 0.39 0.18 0.14 0.27 0.49 0.20 0.09 0.07 0.05 0.07 0.11 0.09 0.09 0.09 0.10 0.10 0.08 0.07 0.08 0.08 0.08 0.08 0.12 0.16 0.14 0.11 0.13 0.16 0.21 0.23 0.23 0.26 0.31 0.40 0.46 0.44 0.42 0.48 0.49 0.49 0.48
0.47 0.58 0.71 0.50 0.23 0.16 0.36 0.47 0.18 0.06 0.03 0.03 0.03 0.04 0.04 0.06 0.07 0.05 0.06 0.06 0.04 0.04 0.06 0.06 0.06 0.07 0.10 0.10 0.07 0.06 0.07 0.10 0.11 0.14 0.20 0.29 0.36 0.35 0.35 0.38 0.41 0.42 0.45 0.45
0.64 0.83 0.99 0.64 0.41 0.36 0.32 0.19 0.09 0.03 0.02 0.02 0.02 0.02 0.04 0.06 0.06 0.05 0.05 0.05 0.04 0.04 0.05 0.05 0.05 0.05 0.07 0.08 0.07 0.07 0.06 0.06 0.07 0.08 0.11 0.16 0.23 0.26 0.28 0.32 0.34 0.33 0.34 0.35
0.70 0.73 0.66 0.49 0.38 0.27 0.19 0.12 0.04 0.03 0.03 0.02 0.02 0.02 0.03 0.04 0.04 0.04 0.04 0.04 0.04 0.05 0.05 0.04 0.04 0.05 0.05 0.07 0.09 0.09 0.06 0.05 0.05 0.06 0.07 0.10 0.15 0.20 0.23 0.29 0.31 0.29 0.28 0.29
0.27 0.30 0.27 0.23 0.18 0.13 0.09 0.07 0.03 0.02 0.03 0.03 0.03 0.02 0.02 0.03 0.03 0.04 0.03 0.04 0.06 0.08 0.07 0.05 0.04 0.06 0.06 0.07 0.08 0.09 0.07 0.06 0.05 0.06 0.06 0.07 0.09 0.15 0.23 0.26 0.24 0.25 0.27 0.29
0.12 0.12 0.12 0.11 0.10 0.09 0.07 0.04 0.02 0.02 0.03 0.04 0.03 0.03 0.03 0.04 0.05 0.05 0.04 0.03 0.05 0.07 0.08 0.07 0.05 0.05 0.06 0.06 0.07 0.08 0.07 0.05 0.06 0.05 0.06 0.05 0.04 0.08 0.15 0.18 0.17 0.19 0.24 0.29
0.09 0.07 0.07 0.08 0.07 0.06 0.06 0.04 0.03 0.03 0.03 0.03 0.03 0.05 0.07 0.05 0.04 0.05 0.04 0.03 0.03 0.04 0.06 0.07 0.07 0.05 0.05 0.06 0.06 0.07 0.08 0.06 0.06 0.06 0.06 0.05 0.05 0.06 0.08 0.09 0.10 0.10 0.12 0.16
0.07 0.04 0.04 0.05 0.04 0.04 0.05 0.04 0.05 0.04 0.05 0.05 0.05 0.06 0.06 0.04 0.04 0.04 0.05 0.04 0.03 0.03 0.05 0.05 0.06 0.06 0.06 0.07 0.07 0.07 0.08 0.08 0.07 0.06 0.06 0.06 0.06 0.09 0.08 0.06 0.04 0.04 0.04 0.06
0.05 0.03 0.04 0.05 0.04 0.04 0.04 0.05 0.05 0.06 0.07 0.07 0.06 0.05 0.04 0.03 0.03 0.03 0.04 0.04 0.04 0.04 0.06 0.06 0.06 0.06 0.07 0.09 0.08 0.08 0.10 0.11 0.09 0.07 0.07 0.08 0.09 0.12 0.17 0.19 0.14 0.06 0.04 0.04
0.05 0.05 0.05 0.06 0.05 0.05 0.04 0.05 0.05 0.06 0.07 0.07 0.06 0.05 0.03 0.03 0.04 0.05 0.04 0.04 0.05 0.05 0.05 0.06 0.07 0.08 0.09 0.10 0.09 0.09 0.12 0.14 0.13 0.13 0.12 0.12 0.14 0.18 0.20 0.18 0.13 0.09 0.06 0.05
0.08 0.05 0.05 0.06 0.05 0.05 0.04 0.04 0.05 0.05 0.06 0.07 0.05 0.05 0.04 0.03 0.05 0.07 0.05 0.04 0.04 0.04 0.04 0.05 0.05 0.06 0.07 0.08 0.08 0.09 0.09 0.12 0.13 0.16 0.15 0.12 0.12 0.15 0.17 0.15 0.11 0.09 0.09 0.08
0.07 0.08 0.07 0.06 0.06 0.06 0.05 0.05 0.05 0.04 0.04 0.05 0.05 0.06 0.05 0.03 0.04 0.07 0.07 0.05 0.04 0.04 0.04 0.04 0.06 0.06 0.06 0.05 0.05 0.06 0.07 0.08 0.09 0.12 0.15 0.14 0.12 0.10 0.11 0.13 0.10 0.09 0.08 0.07
0.05 0.06 0.06 0.06 0.06 0.07 0.06 0.06 0.05 0.04 0.03 0.04 0.04 0.04 0.05 0.04 0.04 0.05 0.06 0.05 0.05 0.05 0.05 0.05 0.05 0.06 0.06 0.05 0.05 0.05 0.05 0.06 0.07 0.09 0.13 0.14 0.13 0.12 0.12 0.12 0.11 0.09 0.09 0.09
0.04 0.04 0.03 0.03 0.04 0.05 0.06 0.06 0.06 0.05 0.04 0.03 0.03 0.03 0.04 0.05 0.05 0.06 0.06 0.06 0.07 0.08 0.07 0.06 0.07 0.06 0.06 0.06 0.06 0.05 0.05 0.05 0.06 0.08 0.11 0.11 0.11 0.11 0.11 0.12 0.12 0.11 0.10 0.10
0.06 0.06 0.05 0.04 0.03 0.03 0.03 0.04 0.05 0.06 0.05 0.04 0.03 0.03 0.04 0.04 0.04 0.04 0.04 0.05 0.07 0.08 0.08 0.09 0.10 0.11 0.09 0.08 0.09 0.07 0.07 0.09 0.10 0.12 0.12 0.11 0.11 0.12 0.12 0.11 0.12 0.12 0.12 0.13
0.07 0.06 0.05 0.04 0.03 0.03 0.02 0.03 0.03 0.04 0.05 0.05 0.05 0.05 0.05 0.04 0.04 0.03 0.03 0.03 0.04 0.05 0.06 0.09 0.12 0.15 0.15 0.15 0.14 0.11 0.11 0.13 0.13 0.14 0.13 0.13 0.12 0.12 0.12 0.12 0.13 0.14 0.15 0.15
0.07 0.05 0.04 0.03 0.03 0.02 0.02 0.02 0.02 0.03 0.03 0.05 0.06 0.06 0.05 0.04 0.03 0.03 0.03 0.03 0.04 0.05 0.06 0.09 0.10 0.13 0.18 0.19 0.15 0.13 0.13 0.13 0.13 0.13 0.14 0.15 0.16 0.16 0.16 0.17 0.18 0.18 0.17 0.18
0.08 0.08 0.06 0.05 0.05 0.04 0.03 0.03 0.03 0.03 0.04 0.05 0.05 0.05 0.05 0.05 0.05 0.06 0.05 0.05 0.04 0.06 0.06 0.08 0.10 0.14 0.20 0.16 0.12 0.11 0.11 0.11 0.12 0.13 0.14 0.16 0.18 0.20 0.20 0.21 0.21 0.22 0.24 0.25
0.08 0.09 0.09 0.08 0.07 0.07 0.07 0.06 0.05 0.06 0.06 0.06 0.07 0.07 0.08 0.08 0.10 0.10 0.09 0.08 0.09 0.09 0.09 0.11 0.14 0.19 0.22 0.16 0.14 0.13 0.13 0.13 0.14 0.16 0.17 0.18 0.20 0.21 0.23 0.25 0.25 0.25 0.27 0.30
0.08 0.08 0.08 0.08 0.08 0.08 0.09 0.08 0.07 0.07 0.07 0.07 0.08 0.09 0.09 0.10 0.12 0.13 0.13 0.12 0.14 0.16 0.16 0.18 0.21 0.24 0.22 0.20 0.20 0.20 0.19 0.19 0.21 0.22 0.22 0.23 0.24 0.26 0.27 0.30 0.31 0.32 0.32 0.34
0.10 0.08 0.08 0.08 0.08 0.08 0.08 0.09 0.09 0.09 0.10 0.09 0.09 0.10 0.11 0.12 0.14 0.16 0.17 0.18 0.19 0.21 0.21 0.22 0.24 0.25 0.25 0.27 0.29 0.29 0.29 0.27 0.26 0.25 0.25 0.27 0.28 0.29 0.30 0.32 0.35 0.38 0.40 0.40
0.10 0.08 0.08 0.09 0.09 0.09 0.09 0.10 0.11 0.11 0.12 0.13 0.13 0.13 0.13 0.13 0.15 0.16 0.17 0.18 0.20 0.22 0.24 0.26 0.27 0.27 0.26 0.27 0.30 0.32 0.33 0.31 0.31 0.31 0.31 0.33 0.34 0.35 0.34 0.35 0.37 0.40 0.42 0.44